Location: Austin
(30.3000°N, 97.7500°W)
Time: 23:06:05
(UTC-05:00)

Tiangong - Pass Details

Date: 08 April 2026
Orbit: 375 x 384 km, 41.5° (Epoch: 20 April)

Event Time Altitude Azimuth Distance (km) Brightness Sun altitude
Rises 21:43:16 0° 310° (NW) 2,238 3.0 -23.3°
Reaches altitude 10° 21:45:40 10° 327° (NNW) 1,383 1.4 -23.8°
Enters shadow 21:47:01 18° 350° (N) 1,022 0.4 -24.0°
